CENTAURI-9

导读

CENTAURI-9(NORAD编号69924)是澳大利亚航天企业Fleet Space Technologies研发的下一代低轨小卫星,2026年7月7日由SpaceX猎鹰9号火箭在Transporter-17拼车任务中发射入轨,运行于太阳同步轨道。作为Fleet Space卫星星座的最新成员,它主要为该公司ExoSphere矿产勘探平台提供通信支持,可配合地面传感器实现勘探数据的高速回传,结合AI技术助力地下矿床的高效定位,服务清洁能源领域的矿产勘探需求,目前在轨运行状态正常。

Basic Information
目录编号:
69924
目录名称:
CENTAURI-9
国际标识:
2026-156BH
轨道中心:
EARTH
卫星名称:
CENTAURI-9
卫星全名:
CENTAURI-9
卫星状态:
在轨 (已飞行60 天)
发射日期:
2026-07-07 UTC
国别 :
澳大利亚 (AU)
星等 :
--
Orbit Information
数据来源 国际轨道数据
星历时间: 2026-09-04T00:23:41+0800
1天前
查看轨道信息
半长轴: 6969.227km
偏心率: 0.0007457
轨道倾角: 97.746°
近地点辐角 329.336°
升交点赤经 146.190°
平近点角 30.743°
近地点: 585.893km
远地点: 596.287km
周期: 96.502分钟
每日圈数: 14.921962
Detailed Information
使用方式:
暂无
2D Orbit Map
3D Orbit Map
Orbit Altitude Analysis Chart
Orbit Inclination Analysis Chart
Orbit Comprehensive Analysis Chart
View Comprehensive Chart
Conjunction Data List
Event ID Objects TCA Miss Dist (km) Collision Risk Probability Collision Risk Index (CRI) Action
CDM_260906-050105-493006-992422
2026-09-06T
05:01:06+0000
0.963 km
远距离
3.049946E-5 中风险 0.65
CDM_260907-072106-270106-992421
2026-09-07T
07:21:01+0000
2.978 km
极远距离
1.361387E-6 低风险 0.38